Location: �clusier
(49.9361°N, 2.7869°E)
Time: 11:35:51
(UTC+00:00)

Cosmos 1452 Rocket - Pass Details

Date: 31 October 2021
Orbit: 767 x 775 km, 74.1° (Epoch: 26 November)

Event Time Altitude Azimuth Distance (km) Brightness Sun altitude
Exits shadow 03:07:34 - 353° (N) 2,651 6.4 -33.8°
Reaches altitude 10° 03:08:46 10° 2° (N) 2,335 6.2 -33.6°
Maximum altitude 03:12:18 18° 44° (NE) 1,848 6.0 -33.1°
Drops below altitude 10° 03:15:50 10° 86° (E) 2,326 6.8 -32.5°
Sets 03:19:00 0° 106° (ESE) 3,248 7.5 -32.0°
